Location: Unspecified
(51.6250°N, 0.8230°E)
Time: 18:05:17
(UTC+00:00)

Cosmos 1674 - Visible Passes

Search period start: 14 December 2018 00:00
Search period end: 24 December 2018 00:00
Orbit: 496 x 521 km, 82.5° (Epoch: 13 December)

Date Brightness Start Highest point End Pass type
(mag) Time Alt. Az. Time Alt. Az. Time Alt. Az.
20 Dec 4.9 07:15:25 10° NNE 07:18:34 24° ENE 07:21:44 10° SE visible
21 Dec 5.2 06:58:16 10° NNE 07:01:08 20° ENE 07:04:00 10° ESE visible
22 Dec 5.4 06:41:10 10° NNE 06:43:40 16° ENE 06:46:10 10° ESE visible
23 Dec 5.5 06:24:11 10° NNE 06:26:11 14° ENE 06:28:11 10° E visible
